Satellite: METEOR-M Catalog number: 35865 Epoch time: 11048.73109671 Element set: 110 Inclination: 098.7220 deg RA of node: 105.3234 deg Eccentricity: 0.0003088 Arg of perigee: 032.7887 deg Mean anomaly: 327.3463 deg Mean motion: 14.21831995 rev/day Decay rate: 1.76e-06 rev/day^2 Epoch rev: 7361 Checksum: 289
Satellite: RS-38 Catalog number: 35869 Epoch time: 11048.81583271 Element set: 122 Inclination: 098.7214 deg RA of node: 105.4464 deg Eccentricity: 0.0004878 Arg of perigee: 025.3490 deg Mean anomaly: 334.7910 deg Mean motion: 14.22000164 rev/day Decay rate: 1.77e-06 rev/day^2 Epoch rev: 7363 Checksum: 292
/EX